Ashland, WI

9:54 PM CST on February 24, 2017 (GMT -0600)
Kennedy Memorial

Weather History for KASX - January, 2014

Change the Weather History Date:

Tuesday, January 21, 2014

  Actual Average Record
Temperature  
Mean Temperature -8 °F -  
Max Temperature 3 °F 27 °F 43 °F (1968)
Min Temperature -18 °F 7 °F -28 °F (1963)
Degree Days  
Heating Degree Days 72    
Moisture  
Dew Point -13 °F    
Average Humidity 71    
Maximum Humidity 84    
Minimum Humidity 50    
Precipitation  
Precipitation 0.01 in - - ()
Sea Level Pressure  
Sea Level Pressure 30.32 in    
Wind  
Wind Speed 7 mph (SW)    
Max Wind Speed 12 mph    
Max Gust Speed 17 mph    
Visibility 8 miles    
Events Snow    
Averages and records for this station are not official NWS values.
T = Trace of Precipitation, MM = Missing Value Source: NWS Daily Summary

Daily Weather History Graph

Daily Weather History Graph

Search for Another Location

Airport or City:

Trip Planner

Search our weather history database for the weather conditions in past years. The results will help you decide how hot, cold, wet, or windy it might be!

Date:

Astronomy

Jan. 21, 2014 Rise Set
Actual Time 7:38 AM CST 4:51 PM CST
Civil Twilight 7:05 AM CST 5:24 PM CST
Nautical Twilight 6:28 AM CST 6:01 PM CST
Astronomical Twilight 5:52 AM CST 6:37 PM CST
Moon 10:47 PM CST (1/21) 9:47 AM CST (1/21)
Length of Visible Light 10h 19m
Length of Day
9h 12m
Waning Gibbous, 74% of the Moon is Illuminated
Jan 21
Waning Gibbous
Jan 23
Last Quarter
Jan 30
New
Feb 6
First Quarter
Feb 14
Full

Hourly Weather History & Observations

Time (CST) Temp. Windchill Dew Point Humidity Pressure Visibility Wind Dir Wind Speed Gust Speed Precip Events Conditions
12:53 AM -4.0 °F -22.1 °F -11.0 °F 72% 30.46 in 10.0 mi NW 11.5 mph - N/A   Overcast
1:37 AM -5.8 °F -21.2 °F -11.2 °F 77% 30.39 in 10.0 mi NW 8.1 mph 17.3 mph N/A   Scattered Clouds
1:53 AM -6.0 °F -23.6 °F -11.9 °F 75% 30.47 in 10.0 mi NNW 10.4 mph - N/A   Partly Cloudy
2:23 AM -9.4 °F -22.7 °F -13.0 °F 84% 30.39 in 10.0 mi WNW 5.8 mph - N/A   Mostly Cloudy
2:53 AM -9.0 °F -22.3 °F -14.1 °F 79% 30.48 in 10.0 mi WSW 5.8 mph - N/A   Overcast
3:53 AM -11.0 °F -22.8 °F -16.1 °F 78% 30.48 in 10.0 mi WSW 4.6 mph - N/A   Overcast
4:53 AM -9.9 °F -23.4 °F -15.0 °F 78% 30.48 in 10.0 mi WSW 5.8 mph - N/A   Overcast
5:26 AM -14.8 °F -30.8 °F -18.4 °F 84% 30.38 in 10.0 mi West 6.9 mph - N/A   Scattered Clouds
5:53 AM -15.0 °F -29.3 °F -18.9 °F 82% 30.47 in 10.0 mi SW 5.8 mph - N/A   Clear
6:53 AM -18.9 °F -37.2 °F -23.1 °F 81% 30.47 in 10.0 mi SW 8.1 mph - N/A   Clear
7:53 AM -18.9 °F -35.8 °F -23.1 °F 81% 30.45 in 10.0 mi SW 6.9 mph - N/A   Clear
8:11 AM -16.6 °F -32.9 °F -20.2 °F 84% 30.36 in 10.0 mi SW 6.9 mph - N/A   Mostly Cloudy
8:53 AM -15.0 °F -25.0 °F -18.9 °F 82% 30.43 in 10.0 mi South 3.5 mph - N/A   Scattered Clouds
9:53 AM -11.0 °F -26.2 °F -17.0 °F 75% 30.43 in 10.0 mi West 6.9 mph - N/A   Clear
10:53 AM -8.0 °F -22.5 °F -15.0 °F 71% 30.41 in 10.0 mi WSW 6.9 mph - N/A   Clear
11:53 AM -4.0 °F -14.6 °F -13.0 °F 65% 30.35 in 10.0 mi Variable 4.6 mph - N/A   Partly Cloudy
12:53 PM -2.0 °F -10.1 °F -11.9 °F 63% 30.31 in 10.0 mi SW 3.5 mph - N/A   Scattered Clouds
1:53 PM 1.0 °F - -11.0 °F 57% 30.28 in 10.0 mi Calm Calm - N/A   Overcast
2:53 PM 1.9 °F - -11.0 °F 55% 30.25 in 10.0 mi Calm Calm - N/A   Overcast
3:53 PM 3.0 °F -9.3 °F -11.9 °F 50% 30.25 in 10.0 mi WSW 6.9 mph - N/A   Mostly Cloudy
4:53 PM 1.9 °F -7.6 °F -11.9 °F 52% 30.23 in 10.0 mi SSW 4.6 mph - N/A   Scattered Clouds
5:53 PM 1.9 °F -10.6 °F -11.9 °F 52% 30.21 in 10.0 mi SSW 6.9 mph - N/A   Overcast
6:53 PM 1.0 °F -10.3 °F -11.0 °F 57% 30.19 in 10.0 mi SSW 5.8 mph - N/A   Overcast
7:53 PM 1.0 °F -11.7 °F -7.1 °F 69% 30.17 in 4.0 mi SSW 6.9 mph - 0.00 in Snow Light Snow
8:53 PM 1.0 °F -11.7 °F -7.1 °F 69% 30.13 in 3.0 mi SSW 6.9 mph - 0.00 in Snow Light Snow
9:35 PM 1.4 °F -9.9 °F -5.8 °F 72% 30.03 in 2.5 mi SSW 5.8 mph - 0.00 in Snow Light Snow
9:53 PM 1.0 °F -10.3 °F -5.1 °F 75% 30.11 in 2.5 mi SW 5.8 mph - 0.00 in Snow Light Snow
10:53 PM 1.0 °F -10.3 °F -5.1 °F 75% 30.09 in 2.0 mi SW 5.8 mph - 0.01 in Snow Light Snow
11:53 PM 1.0 °F -14.0 °F -5.1 °F 75% 30.04 in 2.5 mi SSW 9.2 mph - 0.00 in Snow Light Snow